TimeEST,TemperatureF,Dew PointF,Humidity,Sea Level PressureIn,VisibilityMPH,Wind Direction,Wind SpeedMPH,Gust SpeedMPH,PrecipitationIn,Events,Conditions,WindDirDegrees,DateUTC
12:53 AM,73.9,73.0,97,30.08,10.0,SE,6.9,-,N/A,,Partly Cloudy,140,2014-01-11 05:53:00
1:53 AM,73.9,72.0,93,30.08,10.0,SSE,8.1,-,N/A,,Mostly Cloudy,150,2014-01-11 06:53:00
2:53 AM,73.9,72.0,93,30.08,10.0,SSE,12.7,-,N/A,,Scattered Clouds,150,2014-01-11 07:53:00
3:53 AM,73.0,71.1,93,30.07,10.0,SSE,8.1,-,N/A,,Scattered Clouds,150,2014-01-11 08:53:00
4:53 AM,73.0,71.1,93,30.06,10.0,SSE,12.7,-,N/A,,Partly Cloudy,150,2014-01-11 09:53:00
5:53 AM,73.0,71.1,93,30.06,10.0,SSE,11.5,-,N/A,,Scattered Clouds,150,2014-01-11 10:53:00
6:53 AM,73.9,71.1,91,30.08,10.0,SSE,13.8,19.6,N/A,,Scattered Clouds,160,2014-01-11 11:53:00
7:53 AM,73.9,71.1,91,30.09,10.0,SSE,11.5,-,N/A,,Scattered Clouds,150,2014-01-11 12:53:00
8:32 AM,75.2,71.6,89,30.09,10.0,SSE,15.0,20.7,N/A,,Mostly Cloudy,150,2014-01-11 13:32:00
8:53 AM,75.9,72.0,87,30.10,10.0,SSE,12.7,-,N/A,,Mostly Cloudy,160,2014-01-11 13:53:00
9:53 AM,75.9,71.1,85,30.12,10.0,South,16.1,20.7,N/A,,Mostly Cloudy,170,2014-01-11 14:53:00
10:53 AM,77.0,71.1,82,30.12,10.0,South,16.1,-,N/A,,Mostly Cloudy,170,2014-01-11 15:53:00
11:53 AM,79.0,70.0,74,30.08,10.0,South,13.8,-,N/A,,Mostly Cloudy,170,2014-01-11 16:53:00
12:53 PM,79.0,71.1,77,30.05,10.0,South,11.5,20.7,N/A,,Overcast,180,2014-01-11 17:53:00
1:14 PM,78.8,69.8,74,30.04,10.0,South,12.7,-,N/A,,Mostly Cloudy,190,2014-01-11 18:14:00
1:53 PM,80.1,70.0,71,30.02,10.0,SSE,16.1,-,N/A,,Scattered Clouds,160,2014-01-11 18:53:00
2:53 PM,79.0,70.0,74,30.00,10.0,South,15.0,-,N/A,,Scattered Clouds,170,2014-01-11 19:53:00
3:53 PM,78.1,69.1,74,29.99,10.0,South,15.0,23.0,N/A,,Partly Cloudy,170,2014-01-11 20:53:00
4:53 PM,77.0,70.0,79,29.99,10.0,South,13.8,-,N/A,,Partly Cloudy,180,2014-01-11 21:53:00
5:53 PM,75.9,70.0,82,30.00,10.0,South,13.8,18.4,N/A,,Partly Cloudy,180,2014-01-11 22:53:00
6:53 PM,75.0,71.1,87,30.01,10.0,South,8.1,-,N/A,,Partly Cloudy,190,2014-01-11 23:53:00
7:53 PM,73.9,70.0,87,30.04,10.0,SW,4.6,-,N/A,,Clear,220,2014-01-12 00:53:00
8:53 PM,72.0,69.1,91,30.06,10.0,SW,4.6,-,N/A,,Clear,230,2014-01-12 01:53:00
9:53 PM,72.0,70.0,93,30.08,10.0,WSW,5.8,-,N/A,,Clear,250,2014-01-12 02:53:00
10:53 PM,71.1,71.1,100,30.06,10.0,SSW,4.6,-,N/A,,Clear,200,2014-01-12 03:53:00
11:53 PM,71.1,71.1,100,30.06,10.0,SW,4.6,-,N/A,,Clear,230,2014-01-12 04:53:00